,,,PA_Meas_PMT16A,,PR_Meas_QMR101_102,,RH_Meas_QMH101,,SR_Meas_QMS101,,TA_Meas_QMH101,,GenWind,,GenWind,
date,time,status,PA,status,PR,status,RH,status,SR,status,TA,status,DirAvg,status,SpdAvg,
2012-10-17, 00:00:04,VALID,1011.71,VALID,0,VALID,104,VALID,0,VALID,22.5268,VALID,29,VALID,0,
2012-10-17, 00:01:04,VALID,1011.71,VALID,0,VALID,104,VALID,0,VALID,22.5251,VALID,29,VALID,0,
2012-10-17, 00:02:04,VALID,1011.69,VALID,0,VALID,104,VALID,0,VALID,22.5268,VALID,30,VALID,0,
2012-10-17, 00:03:04,VALID,1011.72,VALID,0,VALID,104,VALID,0.112112,VALID,22.5446,VALID,30,VALID,0,
2012-10-17, 00:04:04,VALID,1011.7,VALID,0,VALID,104,VALID,0,VALID,22.5429,VALID,29,VALID,0,
2012-10-17, 00:05:04,VALID,1011.7,VALID,0,VALID,104,VALID,0,VALID,22.5835,VALID,29,VALID,0,
2012-10-17, 00:06:04,VALID,1011.68,VALID,0,VALID,104,VALID,0,VALID,22.603,VALID,29,VALID,0,
2012-10-17, 00:07:04,VALID,1011.71,VALID,0,VALID,104,VALID,0.112112,VALID,22.6013,VALID,29,VALID,0,
2012-10-17, 00:08:04,VALID,1011.68,VALID,0,VALID,104,VALID,0,VALID,22.6208,VALID,29,VALID,0,
2012-10-17, 00:09:04,VALID,1011.65,VALID,0,VALID,104,VALID,0.112112,VALID,22.6208,VALID,29,VALID,0,
2012-10-17, 00:10:04,VALID,1011.66,VALID,0,VALID,104,VALID,0.112112,VALID,22.6402,VALID,29,VALID,0,
2012-10-17, 00:11:04,VALID,1011.65,VALID,0,VALID,104,VALID,0.112112,VALID,22.6597,VALID,29,VALID,0,
2012-10-17, 00:12:04,VALID,1011.62,VALID,0,VALID,104,VALID,0.112112,VALID,22.6792,VALID,29,VALID,0,
2012-10-17, 00:13:04,VALID,1011.62,VALID,0,VALID,104,VALID,0,VALID,22.7004,VALID,29,VALID,0,
2012-10-17, 00:14:04,VALID,1011.62,VALID,0,VALID,104,VALID,0,VALID,22.7004,VALID,30,VALID,0,
2012-10-17, 00:15:04,VALID,1011.6,VALID,0,VALID,104,VALID,0,VALID,22.6809,VALID,29,VALID,0,
2012-10-17, 00:16:04,VALID,1011.59,VALID,0,VALID,104,VALID,0.112112,VALID,22.6792,VALID,30,VALID,0,
2012-10-17, 00:17:04,VALID,1011.59,VALID,0,VALID,104,VALID,0,VALID,22.7004,VALID,30,VALID,0,
2012-10-17, 00:18:04,VALID,1011.55,VALID,0,VALID,104,VALID,0.112112,VALID,22.6792,VALID,29,VALID,0,
2012-10-17, 00:19:04,VALID,1011.55,VALID,0,VALID,104,VALID,0.112112,VALID,22.6987,VALID,29,VALID,0,
2012-10-17, 00:20:04,VALID,1011.52,VALID,0,VALID,104,VALID,0.112112,VALID,22.6987,VALID,29,VALID,0,
2012-10-17, 00:21:04,VALID,1011.49,VALID,0,VALID,104,VALID,0.112112,VALID,22.6987,VALID,29,VALID,0,
2012-10-17, 00:22:04,VALID,1011.5,VALID,0,VALID,104,VALID,0,VALID,22.7004,VALID,30,VALID,0,
2012-10-17, 00:23:04,VALID,1011.48,VALID,0,VALID,104,VALID,0,VALID,22.6792,VALID,29,VALID,0,
2012-10-17, 00:24:04,VALID,1011.51,VALID,0,VALID,104,VALID,0.112112,VALID,22.6809,VALID,29,VALID,0,
2012-10-17, 00:25:04,VALID,1011.49,VALID,0,VALID,104,VALID,0.112112,VALID,22.6792,VALID,29,VALID,0,
2012-10-17, 00:26:04,VALID,1011.47,VALID,0,VALID,104,VALID,0.112112,VALID,22.6792,VALID,29,VALID,0,
2012-10-17, 00:27:04,VALID,1011.45,VALID,0,VALID,104,VALID,0.112112,VALID,22.7004,VALID,29,VALID,0,
2012-10-17, 00:28:04,VALID,1011.44,VALID,0,VALID,104,VALID,0,VALID,22.7004,VALID,30,VALID,0,
2012-10-17, 00:29:04,VALID,1011.44,VALID,0,VALID,104,VALID,0.112112,VALID,22.7004,VALID,30,VALID,0,
2012-10-17, 00:30:04,VALID,1011.44,VALID,0,VALID,104,VALID,0.112112,VALID,22.6792,VALID,29,VALID,0,
2012-10-17, 00:31:04,VALID,1011.45,VALID,0,VALID,104,VALID,0.112112,VALID,22.6792,VALID,29,VALID,0,
2012-10-17, 00:32:04,VALID,1011.4,VALID,0,VALID,104,VALID,0,VALID,22.6987,VALID,29,VALID,0,
2012-10-17, 00:33:04,VALID,1011.41,VALID,0,VALID,104,VALID,0,VALID,22.7004,VALID,29,VALID,0,
2012-10-17, 00:34:04,VALID,1011.36,VALID,0,VALID,104,VALID,0,VALID,22.7199,VALID,29,VALID,0,
2012-10-17, 00:35:04,VALID,1011.31,VALID,0,VALID,104,VALID,0,VALID,22.7021,VALID,29,VALID,0,
2012-10-17, 00:36:04,VALID,1011.3,VALID,0,VALID,104,VALID,0,VALID,22.7216,VALID,29,VALID,0,
2012-10-17, 00:37:04,VALID,1011.28,VALID,0,VALID,104,VALID,0,VALID,22.7199,VALID,29,VALID,0,
2012-10-17, 00:38:04,VALID,1011.29,VALID,0,VALID,104,VALID,0,VALID,22.7216,VALID,29,VALID,0,
2012-10-17, 00:39:04,VALID,1011.25,VALID,0,VALID,104,VALID,0,VALID,22.7004,VALID,30,VALID,0,
2012-10-17, 00:40:04,VALID,1011.25,VALID,0,VALID,104,VALID,0,VALID,22.7199,VALID,29,VALID,0,
2012-10-17, 00:41:04,VALID,1011.19,VALID,0,VALID,104,VALID,0,VALID,22.7394,VALID,29,VALID,0,
2012-10-17, 00:42:04,VALID,1011.19,VALID,0,VALID,104,VALID,0,VALID,22.78,VALID,29,VALID,0,
2012-10-17, 00:43:04,VALID,1011.13,VALID,0,VALID,104,VALID,0,VALID,22.7588,VALID,29,VALID,0,
2012-10-17, 00:44:04,VALID,1011.12,VALID,0,VALID,104,VALID,0,VALID,22.7394,VALID,30,VALID,0,
2012-10-17, 00:45:04,VALID,1011.09,VALID,0,VALID,104,VALID,0,VALID,22.78,VALID,29,VALID,0,
2012-10-17, 00:46:04,VALID,1011.06,VALID,0,VALID,104,VALID,0,VALID,22.7588,VALID,30,VALID,0,
2012-10-17, 00:47:04,VALID,1011.07,VALID,0,VALID,104,VALID,0,VALID,22.7588,VALID,30,VALID,0,
2012-10-17, 00:48:04,VALID,1011.04,VALID,0,VALID,104,VALID,0.112112,VALID,22.7182,VALID,29,VALID,0,
2012-10-17, 00:49:04,VALID,1011.02,VALID,0,VALID,104,VALID,0.112112,VALID,22.7376,VALID,29,VALID,0,
2012-10-17, 00:50:04,VALID,1011.02,VALID,0,VALID,104,VALID,0.112112,VALID,22.7376,VALID,29,VALID,0,
2012-10-17, 00:51:04,VALID,1011,VALID,0,VALID,104,VALID,0,VALID,22.7588,VALID,29,VALID,0,
2012-10-17, 00:52:04,VALID,1011.01,VALID,0,VALID,104,VALID,0.112112,VALID,22.7376,VALID,30,VALID,0,
2012-10-17, 00:53:04,VALID,1010.98,VALID,0,VALID,104,VALID,0.112112,VALID,22.7588,VALID,29,VALID,0,
2012-10-17, 00:54:04,VALID,1010.98,VALID,0,VALID,104,VALID,0.112112,VALID,22.7394,VALID,29,VALID,0,
2012-10-17, 00:55:04,VALID,1010.96,VALID,0,VALID,104,VALID,0.112112,VALID,22.7182,VALID,29,VALID,0,
2012-10-17, 00:56:04,VALID,1010.97,VALID,0,VALID,104,VALID,0,VALID,22.7199,VALID,29,VALID,0,
2012-10-17, 00:57:04,VALID,1010.93,VALID,0,VALID,104,VALID,0.112112,VALID,22.7199,VALID,29,VALID,0,
2012-10-17, 00:58:04,VALID,1010.91,VALID,0,VALID,104,VALID,0.112112,VALID,22.6792,VALID,29,VALID,0,
2012-10-17, 00:59:04,VALID,1010.88,VALID,0,VALID,104,VALID,0,VALID,22.7199,VALID,29,VALID,0,
2012-10-17, 01:00:04,VALID,1010.88,VALID,0,VALID,104,VALID,0.112112,VALID,22.6792,VALID,30,VALID,0,
2012-10-17, 01:01:04,VALID,1010.88,VALID,0,VALID,104,VALID,0,VALID,22.6402,VALID,30,VALID,0,
2012-10-17, 01:02:04,VALID,1010.87,VALID,0,VALID,104,VALID,0.112112,VALID,22.6402,VALID,30,VALID,0,
2012-10-17, 01:03:04,VALID,1010.84,VALID,0,VALID,104,VALID,0,VALID,22.6225,VALID,29,VALID,0,
2012-10-17, 01:04:04,VALID,1010.88,VALID,0,VALID,104,VALID,0,VALID,22.603,VALID,29,VALID,0,
2012-10-17, 01:05:04,VALID,1010.87,VALID,0,VALID,104,VALID,0,VALID,22.6242,VALID,29,VALID,0,
2012-10-17, 01:06:04,VALID,1010.85,VALID,0,VALID,104,VALID,0,VALID,22.5835,VALID,30,VALID,0,
2012-10-17, 01:07:04,VALID,1010.88,VALID,0,VALID,104,VALID,0,VALID,22.6047,VALID,30,VALID,0,
2012-10-17, 01:08:04,VALID,1010.88,VALID,0,VALID,104,VALID,0,VALID,22.6047,VALID,29,VALID,0,
2012-10-17, 01:09:04,VALID,1010.9,VALID,0,VALID,104,VALID,0,VALID,22.564,VALID,30,VALID,0,
2012-10-17, 01:10:04,VALID,1010.87,VALID,0,VALID,104,VALID,0,VALID,22.5658,VALID,30,VALID,0,
2012-10-17, 01:11:04,VALID,1010.88,VALID,0,VALID,104,VALID,0,VALID,22.5251,VALID,30,VALID,0,
2012-10-17, 01:12:04,VALID,1010.86,VALID,0,VALID,104,VALID,0,VALID,22.5056,VALID,30,VALID,0,
2012-10-17, 01:13:04,VALID,1010.85,VALID,0,VALID,104,VALID,0,VALID,22.5073,VALID,30,VALID,0,
2012-10-17, 01:14:04,VALID,1010.86,VALID,0,VALID,104,VALID,0,VALID,22.4861,VALID,29,VALID,0,
2012-10-17, 01:15:04,VALID,1010.87,VALID,0,VALID,104,VALID,0,VALID,22.4667,VALID,29,VALID,0,
2012-10-17, 01:16:04,VALID,1010.87,VALID,0,VALID,104,VALID,0,VALID,22.4472,VALID,30,VALID,0,
2012-10-17, 01:17:04,VALID,1010.86,VALID,0,VALID,104,VALID,0,VALID,22.4667,VALID,30,VALID,0,
2012-10-17, 01:18:04,VALID,1010.87,VALID,0,VALID,104,VALID,0,VALID,22.4472,VALID,30,VALID,0,
2012-10-17, 01:19:04,VALID,1010.87,VALID,0,VALID,104,VALID,0,VALID,22.4472,VALID,30,VALID,0,
2012-10-17, 01:20:04,VALID,1010.88,VALID,0,VALID,104,VALID,0,VALID,22.4878,VALID,30,VALID,0,
2012-10-17, 01:21:04,VALID,1010.86,VALID,0,VALID,104,VALID,0,VALID,22.4472,VALID,29,VALID,0,
2012-10-17, 01:22:04,VALID,1010.85,VALID,0,VALID,104,VALID,0,VALID,22.4667,VALID,29,VALID,0,
2012-10-17, 01:23:04,VALID,1010.82,VALID,0,VALID,104,VALID,0,VALID,22.4472,VALID,30,VALID,0,
2012-10-17, 01:24:04,VALID,1010.84,VALID,0,VALID,104,VALID,0,VALID,22.4277,VALID,29,VALID,0,
2012-10-17, 01:25:04,VALID,1010.83,VALID,0,VALID,104,VALID,0,VALID,22.4489,VALID,30,VALID,0,
2012-10-17, 01:26:04,VALID,1010.83,VALID,0,VALID,104,VALID,0,VALID,22.4277,VALID,29,VALID,0,
2012-10-17, 01:27:04,VALID,1010.83,VALID,0,VALID,104,VALID,0,VALID,22.4489,VALID,29,VALID,0,
2012-10-17, 01:28:04,VALID,1010.79,VALID,0,VALID,104,VALID,0,VALID,22.4277,VALID,30,VALID,0,
2012-10-17, 01:29:04,VALID,1010.78,VALID,0,VALID,104,VALID,0,VALID,22.4472,VALID,30,VALID,0,
2012-10-17, 01:30:04,VALID,1010.78,VALID,0,VALID,104,VALID,0,VALID,22.4472,VALID,30,VALID,0,
2012-10-17, 01:31:04,VALID,1010.8,VALID,0,VALID,104,VALID,0,VALID,22.4472,VALID,30,VALID,0,
2012-10-17, 01:32:04,VALID,1010.76,VALID,0,VALID,104,VALID,0,VALID,22.4065,VALID,29,VALID,0,
2012-10-17, 01:33:04,VALID,1010.75,VALID,0,VALID,104,VALID,0,VALID,22.4667,VALID,29,VALID,0,
2012-10-17, 01:34:04,VALID,1010.76,VALID,0,VALID,104,VALID,0.112112,VALID,22.4455,VALID,29,VALID,0,
2012-10-17, 01:35:04,VALID,1010.76,VALID,0,VALID,104,VALID,0.112112,VALID,22.4455,VALID,29,VALID,0,
2012-10-17, 01:36:04,VALID,1010.74,VALID,0,VALID,104,VALID,0.112112,VALID,22.4472,VALID,29,VALID,0,
2012-10-17, 01:37:04,VALID,1010.74,VALID,0,VALID,104,VALID,0,VALID,22.426,VALID,30,VALID,0,
2012-10-17, 01:38:04,VALID,1010.75,VALID,0,VALID,104,VALID,0,VALID,22.4472,VALID,29,VALID,0,
2012-10-17, 01:39:04,VALID,1010.69,VALID,0,VALID,104,VALID,0,VALID,22.4065,VALID,30,VALID,0,
2012-10-17, 01:40:04,VALID,1010.68,VALID,0,VALID,104,VALID,0,VALID,22.387,VALID,29,VALID,0,
2012-10-17, 01:41:04,VALID,1010.66,VALID,0,VALID,104,VALID,0.112112,VALID,22.3676,VALID,29,VALID,0,
2012-10-17, 01:42:04,VALID,1010.62,VALID,0,VALID,104,VALID,0.112112,VALID,22.3676,VALID,30,VALID,0,
2012-10-17, 01:43:04,VALID,1010.59,VALID,0,VALID,104,VALID,0.112112,VALID,22.4277,VALID,29,VALID,0,
2012-10-17, 01:44:04,VALID,1010.6,VALID,0,VALID,104,VALID,0,VALID,22.387,VALID,29,VALID,0,
2012-10-17, 01:45:04,VALID,1010.55,VALID,0,VALID,104,VALID,0.112112,VALID,22.426,VALID,29,VALID,0,
2012-10-17, 01:46:04,VALID,1010.53,VALID,0,VALID,104,VALID,0.112112,VALID,22.4455,VALID,29,VALID,0,
2012-10-17, 01:47:04,VALID,1010.51,VALID,0,VALID,104,VALID,0.112112,VALID,22.465,VALID,30,VALID,0,
2012-10-17, 01:48:04,VALID,1010.5,VALID,0,VALID,104,VALID,0,VALID,22.465,VALID,29,VALID,0,
2012-10-17, 01:49:04,VALID,1010.48,VALID,0,VALID,104,VALID,0,VALID,22.4667,VALID,29,VALID,0,
2012-10-17, 01:50:04,VALID,1010.46,VALID,0,VALID,104,VALID,0,VALID,22.4861,VALID,29,VALID,0,
2012-10-17, 01:51:04,VALID,1010.44,VALID,0,VALID,104,VALID,0.112112,VALID,22.465,VALID,29,VALID,0,
2012-10-17, 01:52:04,VALID,1010.43,VALID,0,VALID,104,VALID,0,VALID,22.4472,VALID,29,VALID,0,
2012-10-17, 01:53:04,VALID,1010.41,VALID,0,VALID,104,VALID,0,VALID,22.4065,VALID,30,VALID,0,
2012-10-17, 01:54:04,VALID,1010.4,VALID,0,VALID,104,VALID,0,VALID,22.426,VALID,29,VALID,0,
2012-10-17, 01:55:04,VALID,1010.36,VALID,0,VALID,104,VALID,0.112112,VALID,22.426,VALID,30,VALID,0,
2012-10-17, 01:56:04,VALID,1010.33,VALID,0,VALID,104,VALID,0.112112,VALID,22.4472,VALID,29,VALID,0,
2012-10-17, 01:57:04,VALID,1010.35,VALID,0,VALID,104,VALID,0,VALID,22.426,VALID,30,VALID,0,
2012-10-17, 01:58:04,VALID,1010.34,VALID,0,VALID,104,VALID,0,VALID,22.4455,VALID,29,VALID,0,
2012-10-17, 01:59:04,VALID,1010.34,VALID,0,VALID,104,VALID,0,VALID,22.465,VALID,29,VALID,0,
2012-10-17, 02:00:04,VALID,1010.32,VALID,0,VALID,104,VALID,0.112112,VALID,22.465,VALID,29,VALID,0,
2012-10-17, 02:01:04,VALID,1010.33,VALID,0,VALID,104,VALID,0,VALID,22.465,VALID,30,VALID,0,
2012-10-17, 02:02:04,VALID,1010.35,VALID,0,VALID,104,VALID,0.112112,VALID,22.4455,VALID,29,VALID,0,
2012-10-17, 02:03:04,VALID,1010.36,VALID,0,VALID,104,VALID,0,VALID,22.4277,VALID,30,VALID,0,
2012-10-17, 02:04:04,VALID,1010.35,VALID,0,VALID,104,VALID,0,VALID,22.4277,VALID,30,VALID,0,
2012-10-17, 02:05:04,VALID,1010.32,VALID,0,VALID,104,VALID,0,VALID,22.3887,VALID,29,VALID,0,
2012-10-17, 02:06:04,VALID,1010.34,VALID,0,VALID,104,VALID,0,VALID,22.3887,VALID,30,VALID,0,
2012-10-17, 02:07:04,VALID,1010.3,VALID,0,VALID,104,VALID,0,VALID,22.3693,VALID,30,VALID,0,
2012-10-17, 02:08:04,VALID,1010.35,VALID,0,VALID,104,VALID,0,VALID,22.3693,VALID,29,VALID,0,
2012-10-17, 02:09:04,VALID,1010.3,VALID,0,VALID,104,VALID,0,VALID,22.3693,VALID,29,VALID,0,
2012-10-17, 02:10:04,VALID,1010.3,VALID,0,VALID,104,VALID,0,VALID,22.3498,VALID,30,VALID,0,
2012-10-17, 02:11:04,VALID,1010.27,VALID,0,VALID,104,VALID,0,VALID,22.3693,VALID,30,VALID,0,
2012-10-17, 02:12:04,VALID,1010.3,VALID,0,VALID,104,VALID,0,VALID,22.3693,VALID,29,VALID,0,
2012-10-17, 02:13:04,VALID,1010.3,VALID,0,VALID,104,VALID,0,VALID,22.3887,VALID,29,VALID,0,
2012-10-17, 02:14:04,VALID,1010.29,VALID,0,VALID,104,VALID,0,VALID,22.4082,VALID,30,VALID,0,
2012-10-17, 02:15:04,VALID,1010.27,VALID,0,VALID,104,VALID,0,VALID,22.4277,VALID,29,VALID,0,
2012-10-17, 02:16:04,VALID,1010.25,VALID,0,VALID,104,VALID,0,VALID,22.4277,VALID,30,VALID,0,
2012-10-17, 02:17:04,VALID,1010.27,VALID,0,VALID,104,VALID,0,VALID,22.4082,VALID,29,VALID,0,
2012-10-17, 02:18:04,VALID,1010.26,VALID,0,VALID,104,VALID,0,VALID,22.4082,VALID,29,VALID,0,
2012-10-17, 02:19:04,VALID,1010.26,VALID,0,VALID,104,VALID,0,VALID,22.4082,VALID,29,VALID,0,
2012-10-17, 02:20:04,VALID,1010.29,VALID,0,VALID,104,VALID,0,VALID,22.4277,VALID,29,VALID,0,
2012-10-17, 02:21:04,VALID,1010.28,VALID,0,VALID,104,VALID,0,VALID,22.4082,VALID,29,VALID,0,
2012-10-17, 02:22:04,VALID,1010.29,VALID,0,VALID,104,VALID,0,VALID,22.4277,VALID,30,VALID,0,
2012-10-17, 02:23:04,VALID,1010.27,VALID,0,VALID,104,VALID,0,VALID,22.4472,VALID,29,VALID,0,
2012-10-17, 02:24:04,VALID,1010.27,VALID,0,VALID,104,VALID,0,VALID,22.4472,VALID,29,VALID,0,
2012-10-17, 02:25:04,VALID,1010.25,VALID,0,VALID,104,VALID,0,VALID,22.426,VALID,30,VALID,0,
2012-10-17, 02:26:04,VALID,1010.24,VALID,0,VALID,104,VALID,0,VALID,22.4489,VALID,29,VALID,0,
2012-10-17, 02:27:04,VALID,1010.21,VALID,0,VALID,104,VALID,0,VALID,22.4472,VALID,29,VALID,0,
2012-10-17, 02:28:04,VALID,1010.19,VALID,0,VALID,104,VALID,0,VALID,22.4472,VALID,30,VALID,0,
2012-10-17, 02:29:04,VALID,1010.18,VALID,0,VALID,104,VALID,0,VALID,22.4277,VALID,30,VALID,0,
2012-10-17, 02:30:04,VALID,1010.18,VALID,0,VALID,104,VALID,0,VALID,22.4082,VALID,29,VALID,0,
2012-10-17, 02:31:04,VALID,1010.2,VALID,0,VALID,104,VALID,0,VALID,22.3887,VALID,29,VALID,0,
2012-10-17, 02:32:04,VALID,1010.2,VALID,0,VALID,104,VALID,0,VALID,22.3498,VALID,30,VALID,0,
2012-10-17, 02:33:04,VALID,1010.18,VALID,0,VALID,104,VALID,0.112112,VALID,22.3498,VALID,29,VALID,0,
2012-10-17, 02:34:04,VALID,1010.17,VALID,0,VALID,104,VALID,0.112112,VALID,22.3108,VALID,29,VALID,0,
2012-10-17, 02:35:04,VALID,1010.17,VALID,0,VALID,104,VALID,0.112112,VALID,22.2897,VALID,29,VALID,0,
2012-10-17, 02:36:04,VALID,1010.17,VALID,0,VALID,104,VALID,0.112112,VALID,22.2897,VALID,29,VALID,0,
2012-10-17, 02:37:04,VALID,1010.19,VALID,0,VALID,104,VALID,0.112112,VALID,22.3091,VALID,29,VALID,0,
2012-10-17, 02:38:04,VALID,1010.17,VALID,0,VALID,104,VALID,0.112112,VALID,22.3108,VALID,29,VALID,0,
2012-10-17, 02:39:04,VALID,1010.17,VALID,0,VALID,104,VALID,0.112112,VALID,22.3091,VALID,29,VALID,0,
2012-10-17, 02:40:04,VALID,1010.14,VALID,0,VALID,104,VALID,0.112112,VALID,22.3108,VALID,29,VALID,0,
2012-10-17, 02:41:04,VALID,1010.15,VALID,0,VALID,104,VALID,0,VALID,22.3091,VALID,29,VALID,0,
2012-10-17, 02:42:04,VALID,1010.17,VALID,0,VALID,104,VALID,0.112112,VALID,22.3091,VALID,30,VALID,0,
2012-10-17, 02:43:04,VALID,1010.19,VALID,0,VALID,104,VALID,0,VALID,22.3303,VALID,29,VALID,0,
2012-10-17, 02:44:04,VALID,1010.21,VALID,0,VALID,104,VALID,0.112112,VALID,22.2897,VALID,29,VALID,0,
2012-10-17, 02:45:04,VALID,1010.23,VALID,0,VALID,104,VALID,0,VALID,22.2702,VALID,29,VALID,0,
2012-10-17, 02:46:04,VALID,1010.21,VALID,0,VALID,104,VALID,0.112112,VALID,22.2507,VALID,29,VALID,0,
2012-10-17, 02:47:04,VALID,1010.23,VALID,0,VALID,104,VALID,0,VALID,22.2134,VALID,30,VALID,0,
2012-10-17, 02:48:04,VALID,1010.22,VALID,0,VALID,104,VALID,0.112112,VALID,22.1923,VALID,30,VALID,0,
2012-10-17, 02:49:04,VALID,1010.22,VALID,0,VALID,104,VALID,0,VALID,22.1745,VALID,30,VALID,0,
2012-10-17, 02:50:04,VALID,1010.21,VALID,0,VALID,104,VALID,0.112112,VALID,22.1533,VALID,29,VALID,0,
2012-10-17, 02:51:04,VALID,1010.23,VALID,0,VALID,104,VALID,0.112112,VALID,22.155,VALID,29,VALID,0,
2012-10-17, 02:52:04,VALID,1010.23,VALID,0,VALID,104,VALID,0,VALID,22.1745,VALID,30,VALID,0,
2012-10-17, 02:53:04,VALID,1010.24,VALID,0,VALID,104,VALID,0.112112,VALID,22.155,VALID,29,VALID,0,
2012-10-17, 02:54:04,VALID,1010.23,VALID,0,VALID,104,VALID,0.112112,VALID,22.155,VALID,29,VALID,0,
2012-10-17, 02:55:04,VALID,1010.25,VALID,0,VALID,104,VALID,0.112112,VALID,22.1355,VALID,29,VALID,0,
2012-10-17, 02:56:04,VALID,1010.24,VALID,0,VALID,104,VALID,0.112112,VALID,22.1144,VALID,29,VALID,0,
2012-10-17, 02:57:04,VALID,1010.25,VALID,0,VALID,104,VALID,0.112112,VALID,22.1339,VALID,29,VALID,0,
2012-10-17, 02:58:04,VALID,1010.23,VALID,0,VALID,104,VALID,0.112112,VALID,22.1339,VALID,29,VALID,0,
2012-10-17, 02:59:04,VALID,1010.23,VALID,0,VALID,104,VALID,0.112112,VALID,22.1533,VALID,29,VALID,0,
2012-10-17, 03:00:04,VALID,1010.24,VALID,0,VALID,104,VALID,0,VALID,22.1533,VALID,29,VALID,0,
2012-10-17, 03:01:04,VALID,1010.22,VALID,0,VALID,104,VALID,0.112112,VALID,22.1339,VALID,29,VALID,0,
2012-10-17, 03:02:04,VALID,1010.24,VALID,0,VALID,104,VALID,0.112112,VALID,22.1339,VALID,29,VALID,0,
2012-10-17, 03:03:04,VALID,1010.25,VALID,0,VALID,104,VALID,0.112112,VALID,22.1144,VALID,30,VALID,0,
2012-10-17, 03:04:04,VALID,1010.24,VALID,0,VALID,104,VALID,0.112112,VALID,22.1161,VALID,30,VALID,0,
2012-10-17, 03:05:04,VALID,1010.23,VALID,0,VALID,104,VALID,0.112112,VALID,22.0966,VALID,29,VALID,0,
2012-10-17, 03:06:04,VALID,1010.22,VALID,0,VALID,104,VALID,0.112112,VALID,22.0754,VALID,30,VALID,0,
2012-10-17, 03:07:04,VALID,1010.22,VALID,0,VALID,104,VALID,0,VALID,22.0754,VALID,29,VALID,0,
2012-10-17, 03:08:04,VALID,1010.19,VALID,0,VALID,104,VALID,0.112112,VALID,22.0754,VALID,30,VALID,0,
2012-10-17, 03:09:04,VALID,1010.2,VALID,0,VALID,104,VALID,0,VALID,22.1372,VALID,29,VALID,0,
2012-10-17, 03:10:04,VALID,1010.21,VALID,0,VALID,104,VALID,0,VALID,22.155,VALID,30,VALID,0,
2012-10-17, 03:11:04,VALID,1010.25,VALID,0,VALID,104,VALID,0,VALID,22.155,VALID,30,VALID,0,
2012-10-17, 03:12:04,VALID,1010.24,VALID,0,VALID,104,VALID,0,VALID,22.1762,VALID,29,VALID,0,
2012-10-17, 03:13:04,VALID,1010.29,VALID,0,VALID,104,VALID,0,VALID,22.1567,VALID,30,VALID,0,
2012-10-17, 03:14:04,VALID,1010.27,VALID,0,VALID,104,VALID,0,VALID,22.1355,VALID,30,VALID,0,
2012-10-17, 03:15:04,VALID,1010.27,VALID,0,VALID,104,VALID,0,VALID,22.1355,VALID,30,VALID,0,
2012-10-17, 03:16:04,VALID,1010.29,VALID,0,VALID,104,VALID,0,VALID,22.1355,VALID,29,VALID,0,
2012-10-17, 03:17:04,VALID,1010.31,VALID,0,VALID,104,VALID,0,VALID,22.1177,VALID,30,VALID,0,
2012-10-17, 03:18:04,VALID,1010.32,VALID,0,VALID,104,VALID,0,VALID,22.0983,VALID,29,VALID,0,
2012-10-17, 03:19:04,VALID,1010.34,VALID,0,VALID,104,VALID,0,VALID,22.0966,VALID,29,VALID,0,
2012-10-17, 03:20:04,VALID,1010.36,VALID,0,VALID,104,VALID,0,VALID,22.0966,VALID,30,VALID,0,
2012-10-17, 03:21:04,VALID,1010.37,VALID,0,VALID,104,VALID,0,VALID,22.1161,VALID,29,VALID,0,
2012-10-17, 03:22:04,VALID,1010.36,VALID,0,VALID,104,VALID,0,VALID,22.1161,VALID,29,VALID,0,
2012-10-17, 03:23:04,VALID,1010.39,VALID,0,VALID,104,VALID,0,VALID,22.0966,VALID,29,VALID,0,
2012-10-17, 03:24:04,VALID,1010.37,VALID,0,VALID,104,VALID,0,VALID,22.0771,VALID,30,VALID,0,
2012-10-17, 03:25:04,VALID,1010.36,VALID,0,VALID,104,VALID,0,VALID,22.0771,VALID,30,VALID,0,
2012-10-17, 03:26:04,VALID,1010.34,VALID,0,VALID,104,VALID,0,VALID,22.0771,VALID,30,VALID,0,
2012-10-17, 03:27:04,VALID,1010.35,VALID,0,VALID,104,VALID,0,VALID,22.0771,VALID,30,VALID,0,
2012-10-17, 03:28:04,VALID,1010.37,VALID,0,VALID,104,VALID,0,VALID,22.0593,VALID,29,VALID,0,
2012-10-17, 03:29:04,VALID,1010.4,VALID,0,VALID,104,VALID,0,VALID,22.0593,VALID,29,VALID,0,
2012-10-17, 03:30:04,VALID,1010.41,VALID,0,VALID,104,VALID,0,VALID,22.0382,VALID,29,VALID,0,
2012-10-17, 03:31:04,VALID,1010.4,VALID,0,VALID,104,VALID,0,VALID,22.0771,VALID,29,VALID,0,
2012-10-17, 03:32:04,VALID,1010.48,VALID,0,VALID,104,VALID,0,VALID,22.0771,VALID,29,VALID,0,
2012-10-17, 03:33:04,VALID,1010.54,VALID,0,VALID,104,VALID,0,VALID,22.0576,VALID,29,VALID,0,
2012-10-17, 03:34:04,VALID,1010.54,VALID,0,VALID,104,VALID,0,VALID,22.0966,VALID,29,VALID,0,
2012-10-17, 03:35:04,VALID,1010.59,VALID,0,VALID,104,VALID,0,VALID,22.1355,VALID,30,VALID,0,
2012-10-17, 03:36:04,VALID,1010.61,VALID,0,VALID,104,VALID,0,VALID,22.1161,VALID,30,VALID,0,
2012-10-17, 03:37:04,VALID,1010.57,VALID,0,VALID,104,VALID,0,VALID,22.1372,VALID,30,VALID,0,
2012-10-17, 03:38:04,VALID,1010.56,VALID,0,VALID,104,VALID,0,VALID,22.0966,VALID,29,VALID,0,
2012-10-17, 03:39:04,VALID,1010.55,VALID,0,VALID,104,VALID,0,VALID,22.0966,VALID,30,VALID,0,
2012-10-17, 03:40:04,VALID,1010.55,VALID,0,VALID,104,VALID,0,VALID,22.1372,VALID,29,VALID,0,
2012-10-17, 03:41:04,VALID,1010.55,VALID,0,VALID,104,VALID,0,VALID,22.1161,VALID,30,VALID,0,
2012-10-17, 03:42:04,VALID,1010.54,VALID,0,VALID,104,VALID,0,VALID,22.1161,VALID,29,VALID,0,
2012-10-17, 03:43:04,VALID,1010.55,VALID,0,VALID,104,VALID,0,VALID,22.1355,VALID,30,VALID,0,
2012-10-17, 03:44:04,VALID,1010.55,VALID,0,VALID,104,VALID,0,VALID,22.1161,VALID,29,VALID,0,
2012-10-17, 03:45:04,VALID,1010.54,VALID,0,VALID,104,VALID,0,VALID,22.0771,VALID,29,VALID,0,
2012-10-17, 03:46:04,VALID,1010.53,VALID,0,VALID,104,VALID,0,VALID,22.1177,VALID,29,VALID,0,
2012-10-17, 03:47:04,VALID,1010.53,VALID,0,VALID,104,VALID,0,VALID,22.0788,VALID,30,VALID,0,
2012-10-17, 03:48:04,VALID,1010.53,VALID,0,VALID,104,VALID,0,VALID,22.0576,VALID,30,VALID,0,
2012-10-17, 03:49:04,VALID,1010.54,VALID,0,VALID,104,VALID,0,VALID,22.0576,VALID,29,VALID,0,
2012-10-17, 03:50:04,VALID,1010.56,VALID,0,VALID,104,VALID,0.112112,VALID,22.0771,VALID,29,VALID,0,
2012-10-17, 03:51:04,VALID,1010.56,VALID,0,VALID,104,VALID,0.112112,VALID,22.0754,VALID,30,VALID,0,
2012-10-17, 03:52:04,VALID,1010.58,VALID,0,VALID,104,VALID,0.112112,VALID,22.0754,VALID,29,VALID,0,
2012-10-17, 03:53:04,VALID,1010.62,VALID,0,VALID,104,VALID,0.112112,VALID,22.0754,VALID,29,VALID,0,
2012-10-17, 03:54:04,VALID,1010.61,VALID,0,VALID,104,VALID,0.112112,VALID,22.1161,VALID,29,VALID,0,
2012-10-17, 03:55:04,VALID,1010.61,VALID,0,VALID,104,VALID,0,VALID,22.0949,VALID,29,VALID,0,
2012-10-17, 03:56:04,VALID,1010.62,VALID,0,VALID,104,VALID,0.112112,VALID,22.0754,VALID,29,VALID,0,
2012-10-17, 03:57:04,VALID,1010.61,VALID,0,VALID,104,VALID,0,VALID,22.1355,VALID,29,VALID,0,
2012-10-17, 03:58:04,VALID,1010.66,VALID,0,VALID,104,VALID,0.112112,VALID,22.0949,VALID,29,VALID,0,
2012-10-17, 03:59:04,VALID,1010.66,VALID,0,VALID,104,VALID,0,VALID,22.056,VALID,29,VALID,0,
2012-10-17, 04:00:04,VALID,1010.69,VALID,0,VALID,104,VALID,0,VALID,22.0365,VALID,29,VALID,0,
2012-10-17, 04:01:04,VALID,1010.7,VALID,0,VALID,104,VALID,0,VALID,22.017,VALID,29,VALID,0,
2012-10-17, 04:02:04,VALID,1010.71,VALID,0,VALID,104,VALID,0.112112,VALID,22.0187,VALID,29,VALID,0,
2012-10-17, 04:03:04,VALID,1010.73,VALID,0,VALID,104,VALID,0,VALID,22.0009,VALID,29,VALID,0,
2012-10-17, 04:04:04,VALID,1010.75,VALID,0,VALID,104,VALID,0,VALID,22.0204,VALID,29,VALID,0,
2012-10-17, 04:05:04,VALID,1010.76,VALID,0,VALID,104,VALID,0,VALID,21.9992,VALID,30,VALID,0,
2012-10-17, 04:06:04,VALID,1010.75,VALID,0,VALID,104,VALID,0,VALID,21.9992,VALID,29,VALID,0,